Regional Weather Roundup
Issued by NWS

Home | Current Version | Previous Version | Graphics & Text | Print | Product List | Glossary On
Versions: 1 2 3 4 5 6 7 8 9 10 11 12 13 14 15 16 17 18 19 20 21 22 23 24 25 26 27 28 29 30 31 32 33 34 35 36 37 38 39 40 41 42 43 44 45 46 47 48 49 50
971
ASUS44 KLIX 171301
RWRLA
LOUISIANA WEATHER ROUNDUP
NATIONAL WEATHER SERVICE NEW ORLEANS LA
800 AM CDT WED SEP 17 2014

NOTE: "FAIR" INDICATES FEW OR NO CLOUDS BELOW 12,000 FEET WITH NO
      SIGNIFICANT WEATHER AND/OR OBSTRUCTIONS TO VISIBILITY.
      SKY/WX - SKY CONDITION AND SIGNIFICANT WEATHER.
      TMP - AIR TEMPERATURE.    DP   - DEWPOINT TEMPERATURE.
      RH  - RELATIVE HUMIDITY.  PRES - PRESSURE.
      HX  - HEAT INDEX.         WCI  - WIND CHILL INDEX.

*  THESE STATIONS ARE NOT NWS OR FAA STATIONS AND ARE NOT UNDER
   NWS QUALITY CONTROL.

LAZ040-048-061>063-065-066-069-171400-
SOUTHEAST LOUISIANA

CITY           SKY/WX    TMP DP  RH WIND       PRES   REMARKS
N.O. AUDUBON     N/A     79  76  89 MISG        N/A
N.O. INTL ARPT MOSUNNY   77  73  87 CALM      29.97R
N.O. LAKEFRONT SUNNY     80  72  76 NE3       29.98R
N.O. DOWNTOWN* FAIR      79  70  73 CALM      29.98R
SLIDELL        SUNNY     72  70  93 CALM      29.98R
BATON ROUGE    SUNNY     73  71  93 CALM      29.98R FOG
BOOTHVILLE     MOSUNNY   78  73  84 E7        29.97S
BELLE CHASSE   PTSUNNY   77  73  87 CALM      29.97R
BOGALUSA*      FOG       73  70  89 CALM      29.99R VSB 1/2
GALLIANO*      NOT AVBL
NEW ROADS*     CLOUDY    72  72  99 W3        29.99R FOG
GONZALES*      FAIR      73  73 100 CALM      29.98R FOG
HAMMOND*       NOT AVBL
HOUMA*         MOSUNNY   73  70  88 N3        29.98R
PORT FOURCHON* SUNNY     79  75  89 NE7       30.00

$$

LAZ041-044-053-054-171400-
SOUTHWEST LOUISIANA

CITY           SKY/WX    TMP DP  RH WIND       PRES   REMARKS
LAKE CHARLES   CLOUDY    73  72  96 NE6       29.97S
LAFAYETTE      MOSUNNY   74  73  97 CALM      29.98R
PATTERSON      CLOUDY    72  72 100 CALM      30.00R
SALT POINT       N/A     77  73  87 CALM      29.97R
NEW IBERIA     SUNNY     74  72  93 CALM      29.98S
CHENAULT AIRPK NOT AVBL

$$

LAZ027-028-171400-
CENTRAL LOUISIANA

CITY           SKY/WX    TMP DP  RH WIND       PRES   REMARKS
FORT POLK      CLOUDY    71  71 100 CALM      29.99R FOG
ALEXANDRIA INT FOG       71  71 100 CALM      29.97R VSB 1/4
ALEXANDRIA     FOG       72  70  94 CALM      29.99R VSB 1/4

$$

LAZ001-002-171400-
NORTHWEST LOUISIANA

CITY           SKY/WX    TMP DP  RH WIND       PRES   REMARKS
SHREVEPORT     PTSUNNY   73  70  90 CALM      29.98R
BARKSDALE AFB  PTSUNNY   72  72 100 NE2       29.98R
DTN SHREVEPORT PTSUNNY   74  72  93 CALM      29.98R

$$

LAZ014-016-171400-
NORTHEAST LOUISIANA

CITY           SKY/WX    TMP DP  RH WIND       PRES   REMARKS
MONROE         MOSUNNY   72  69  90 CALM      29.99R FOG
TALLULAH       MOSUNNY   71  70  96 CALM      29.98R

$$




USA.gov is the U.S. government's official web portal to all federal, state and local government web resources and services.